Weather History for Sisimiut, Greenland

Change the Weather History Date:

Monday, January 21, 2013

  Actual Average Record
Temperature  
Mean Temperature 30 °F -  
Max Temperature 42 °F - - ()
Min Temperature 17 °F - - ()
Degree Days  
Heating Degree Days 36    
Moisture  
Dew Point 15 °F    
Average Humidity 64    
Maximum Humidity 100    
Minimum Humidity 31    
Precipitation  
Precipitation 0.00 in - - ()
Sea Level Pressure  
Sea Level Pressure 29.42 in    
Wind  
Wind Speed 15 mph ()    
Max Wind Speed 33 mph    
Max Gust Speed 45 mph    
Visibility 6.1 miles    
Events Rain , Snow    
T = Trace of Precipitation, MM = Missing Value Source: Averaged Metar Reports

Daily Weather History Graph

Daily Weather History Graph

Search for Another Location

Airport:

Trip Planner

Search our weather history database for the weather conditions in past years. The results will help you decide how hot, cold, wet, or windy it might be!

Date:

Astronomy

Jan. 21, 2013 Rise Set
Actual Time 10:21 AM WGT 3:12 PM WGT
Civil Twilight 9:03 AM WGT 4:30 PM WGT
Nautical Twilight 7:51 AM WGT 5:41 PM WGT
Astronomical Twilight 6:48 AM WGT 6:45 PM WGT
Moon 10:36 AM WGT (1/21) 5:52 AM WGT (1/21)
Length of Visible Light 7h 27m
Length of Day
4h 51m
Waxing Gibbous, 74% of the Moon is Illuminated
Jan 21
Waxing Gibbous
Jan 27
Full
Feb 3
Last Quarter
Feb 10
New
Feb 17
First Quarter

Hourly Weather History & Observations

Time (WGT) Temp. Windchill Dew Point Humidity Pressure Visibility Wind Dir Wind Speed Gust Speed Precip Events Conditions
12:20 AM 17.6 °F 3.7 °F 15.8 °F 93% 29.39 in 6.2 mi WNW 13.8 mph - N/A   Mostly Cloudy
12:50 AM 17.6 °F 3.7 °F 15.8 °F 93% 29.39 in 6.2 mi WNW 13.8 mph - N/A   Overcast
1:20 AM 17.6 °F 3.7 °F 15.8 °F 93% 29.39 in 6.2 mi WNW 13.8 mph - N/A   Overcast
1:50 AM 17.6 °F 4.3 °F 15.8 °F 93% 29.39 in 6.2 mi WNW 12.7 mph - N/A   Overcast
2:20 AM 17.6 °F 3.2 °F 15.8 °F 93% 29.39 in 6.2 mi WNW 15.0 mph - N/A   Overcast
2:50 AM 17.6 °F 3.2 °F 15.8 °F 93% 29.39 in 6.2 mi WNW 15.0 mph - N/A   Mostly Cloudy
3:20 AM 17.6 °F 5.0 °F 15.8 °F 93% 29.39 in 6.2 mi WNW 11.5 mph - N/A   Mostly Cloudy
3:50 AM 17.6 °F 4.3 °F 14.0 °F 86% 29.42 in 6.2 mi WNW 12.7 mph - N/A   Mostly Cloudy
4:20 AM 17.6 °F 3.7 °F 14.0 °F 86% 29.42 in 6.2 mi NW 13.8 mph - N/A   Mostly Cloudy
4:50 AM 17.6 °F 4.3 °F 14.0 °F 86% 29.42 in 6.2 mi WNW 12.7 mph - N/A   Mostly Cloudy
5:20 AM 17.6 °F 5.0 °F 14.0 °F 86% 29.42 in 6.2 mi WNW 11.5 mph - N/A   Overcast
5:50 AM 17.6 °F 5.0 °F 15.8 °F 93% 29.44 in 6.2 mi WNW 11.5 mph - N/A   Overcast
6:20 AM 17.6 °F 6.4 °F 15.8 °F 93% 29.44 in 6.2 mi WNW 9.2 mph - N/A   Overcast
6:50 AM 17.6 °F 10.7 °F 15.8 °F 93% 29.44 in 6.2 mi WNW 4.6 mph - N/A   Overcast
7:50 AM 17.6 °F 6.4 °F 15.8 °F 93% 29.47 in 6.2 mi WNW 9.2 mph - N/A   Overcast
9:50 AM 17.6 °F 8.2 °F 15.8 °F 93% 29.47 in 6.2 mi WNW 6.9 mph - N/A Snow Light Snow
10:50 AM 17.6 °F 10.7 °F 17.6 °F 100% 29.44 in 6.2 mi Variable 4.6 mph - N/A Snow Light Snow
11:50 AM 17.6 °F - 15.8 °F 93% 29.42 in 6.2 mi Variable 1.2 mph - N/A   Mostly Cloudy
12:50 PM 41.0 °F 34.3 °F 17.6 °F 39% 29.39 in 6.2 mi Variable 11.5 mph 26.5 mph N/A   Mostly Cloudy
1:50 PM 41.0 °F 29.7 °F 17.6 °F 39% 29.39 in 6.2 mi ENE 31.1 mph - N/A   Unknown
2:50 PM 42.8 °F 32.9 °F 15.8 °F 34% 29.39 in 6.2 mi ENE 26.5 mph - N/A   Unknown
3:50 PM 41.0 °F 29.7 °F 15.8 °F 36% 29.42 in 6.2 mi ENE 31.1 mph - N/A   Unknown
4:50 PM 41.0 °F 30.0 °F 17.6 °F 39% 29.42 in 6.2 mi ENE 28.8 mph 40.3 mph N/A   Unknown
5:50 PM 39.2 °F 27.2 °F 19.4 °F 45% 29.42 in 6.2 mi East 31.1 mph 42.6 mph N/A   Unknown
6:50 PM 41.0 °F 30.9 °F 12.2 °F 31% 29.42 in 6.2 mi East 24.2 mph - N/A   Unknown
7:20 PM 41.0 °F 31.4 °F 15.8 °F 36% 29.42 in 6.2 mi East 21.9 mph - N/A   Mostly Cloudy
7:50 PM 41.0 °F 29.8 °F 15.8 °F 36% 29.42 in 6.2 mi East 29.9 mph - N/A   Mostly Cloudy
8:20 PM 41.0 °F 29.8 °F 15.8 °F 36% 29.42 in 6.2 mi East 29.9 mph 41.4 mph N/A   Mostly Cloudy
8:50 PM 41.0 °F 29.3 °F 15.8 °F 36% 29.42 in 6.2 mi East 33.4 mph - N/A   Mostly Cloudy
9:20 PM 41.0 °F 29.5 °F 12.2 °F 31% 29.42 in 4.3 mi East 32.2 mph - N/A Rain Light Rain
9:50 PM 41.0 °F 30.0 °F 14.0 °F 33% 29.42 in 6.2 mi East 28.8 mph - N/A   Mostly Cloudy
10:20 PM 41.0 °F 29.8 °F 14.0 °F 33% 29.42 in 6.2 mi ENE 29.9 mph 44.9 mph N/A   Mostly Cloudy
10:50 PM 41.0 °F 30.7 °F 14.0 °F 33% 29.42 in 6.2 mi ENE 25.3 mph 38.0 mph N/A   Mostly Cloudy
11:20 PM 41.0 °F 30.5 °F 14.0 °F 33% 29.42 in 6.2 mi East 26.5 mph 38.0 mph N/A   Mostly Cloudy
11:50 PM 41.0 °F 29.8 °F 12.2 °F 31% 29.39 in 6.2 mi East 29.9 mph - N/A   Mostly Cloudy